Location: Dötzum
(52.0808°N, 9.8063°E)
Time: 05:55:28
(UTC+00:00)

SL-16 R/B - Pass Details

Date: 27 May 2022
Orbit: 986 x 1006 km, 99.6° (Epoch: 26 June)

Event Time Altitude Azimuth Distance (km) Brightness Sun altitude
Exits shadow 01:45:54 - 188° (S) 2,900 4.4 -9.9°
Reaches altitude 10° 01:46:18 10° 189° (S) 2,756 4.3 -9.8°
Maximum altitude 01:52:13 45° 261° (W) 1,330 2.9 -9.3°
Drops below altitude 10° 01:58:12 10° 334° (NNW) 2,787 5.3 -8.7°
Sets 02:00:50 0° 341° (NNW) 3,744 6.0 -8.5°
